SCP
-0 -0 -0 -0 -0 0 0 -0 0 -0 0 0 0 0 0 0 0 0 0 0 0 0 0 0 0 0 0 0 0 0 0 0 0 0 0 0 0 0 0 0 0 0 0 0
-0 -0 -0 -0 -0 -0 -0 0 0 0 -0 0 0 0 0 0 0 0 0 0 0 0 0 0 0 0 0 0 0 0 0 0 0 0 0 0 0 0 0 1 1 0 0 0
-0 -0 -0 -0 -0 0 -0 0 0 0 0 0 0 0 0 0 0 0 0 0 0 0 0 0 0 0 0 0 0 0 0 0 0 0 0 0 0 0 0 0 0 0 0 0
-0 -0 -0 -0 -0 -0 -0 -0 0 0 0 0 0 0 0 0 0 0 0 0 0 0 0 0 0 0 0 0 0 0 0 0 0 -0 -0 -0 0 -0 -0 0 0 0 0 0
-0 -0 -0 -0 -0 -0 0 0 0 0 0 0 0 0 0 0 0 0 0 0 0 0 0 0 0 0 0 0 0 0 0 0 0 -0 -0 0 -0 0 0 0 -0 0 0 0
-0 -0 -0 -0 -0 -0 0 0 0 0 0 0 0 0 0 0 0 0 0 0 0 0 0 0 0 0 0 0 0 0 0 0 0 0 0 0 0 0 0 0 0 0 0 0
-0 -0 -0 -0 -0 -0 0 0 0 0 0 0 0 0 0 0 0 0 0 0 0 0 -0 0 0 0 0 0 0 0 0 0 0 0 -0 0 0 0 0 0 0 0 0 0
-0 -0 -0 -0 -0 -0 0 0 0 0 0 0 0 0 0 0 0 0 0 0 0 0 0 0 0 0 0 0 0 0 0 0 0 0 -0 0 -0 0 0 0 0 0 0 0
-0 -0 -0 -0 -0 -0 0 0 0 0 0 0 0 0 0 0 0 0 0 0 0 0 0 0 0 0 0 0 0 0 0 0 0 0 0 0 -0 0 0 0 0 -0 0 0
-0 -0 -0 -0 -0 0 0 0 0 0 0 0 0 0 0 0 0 0 0 0 0 0 0 0 0 0 0 0 0 0 0 0 0 0 0 0 0 -0 0 -0 0 0 -0 -0
-0 -0 -0 -0 0 0 0 0 0 0 0 0 0 0 0 0 0 0 0 0 0 0 0 0 0 0 0 0 0 0 0 0 0 0 0 0 0 0 0 0 0 -0 -0 0
-0 -0 -0 0 0 0 0 0 0 0 0 0 0 0 0 0 0 0 0 0 0 0 0 0 0 0 0 0 0 0 0 0 0 0 0 0 0 0 0 0 0 0 0 -0
-0 -0 -0 0 0 0 0 0 0 0 0 0 0 0 0 0 -0 -0 0 0 0 0 0 0 0 0 0 0 0 0 0 0 0 0 0 0 0 0 0 0 -0 0 0 0
-0 -0 -0 -0 -0 0 0 0 0 0 0 0 0 0 0 0 0 0 0 0 0 0 0 0 0 0 0 0 0 0 0 0 0 0 0 0 0 0 0 0 0 0 0 0
-0 -0 -0 -0 0 0 0 0 0 0 0 0 0 0 0 0 0 0 0 0 0 0 0 0 0 0 0 0 0 0 0 0 0 0 0 0 0 0 0 0 0 0 0 0
-0 -0 -0 -0 0 0 0 0 0 0 0 0 0 0 0 0 0 0 0 0 0 0 0 0 0 0 0 0 0 0 0 0 0 0 0 0 0 0 0 0 0 0 0 0
-0 -0 -0 0 0 0 0 0 0 0 0 0 0 0 0 0 0 0 0 0 0 0 0 0 0 0 0 0 0 0 0 0 0 0 0 0 0 0 0 0 0 0 0 -0
-0 -0 0 0 0 0 0 0 0 0 0 0 0 0 0 0 0 0 0 0 0 0 0 0 0 0 0 0 0 0 0 0 0 0 0 0 0 0 0 0 0 0 0 0
-0 0 0 0 0 0 0 0 0 0 0 0 0 0 0 0 0 0 0 0 0 0 0 0 0 0 0 0 0 0 0 0 0 0 0 0 0 0 0 0 0 0 0 0
-0 0 0 0 0 0 0 0 0 0 0 0 0 0 0 0 0 0 0 0 0 0 0 0 0 0 0 0 0 0 0 0 0 0 0 0 0 0 0 0 0 -0 0 0
0 0 0 0 0 0 0 0 0 0 0 0 0 0 0 0 0 0 0 0 0 0 0 0 0 0 0 0 0 0 0 0 0 0 0 0 0 0 0 0 0 0 0 0
0 0 0 0 0 0 0 0 0 0 0 0 0 0 0 0 0 0 0 0 0 0 0 0 0 0 0 0 0 0 0 0 0 0 0 0 0 0 0 0 0 0 0 0
0 0 0 0 0 0 0 0 0 0 0 0 0 0 0 0 0 0 0 0 0 0 0 0 0 0 0 0 0 0 0 0 0 0 0 0 0 0 0 0 0 0 0 0
0 0 0 0 0 0 0 0 0 0 0 0 0 0 0 0 0 0 0 0 0 0 0 0 0 0 0 0 0 0 0 0 0 0 0 0 0 0 0 0 0 0 0 0
0 0 0 0 0 0 0 0 0 0 0 0 0 0 0 0 0 0 0 0 0 0 0 0 0 0 0 0 0 0 0 0 0 0 0 0 0 0 0 0 0 0 0 -0
0 0 0 0 0 0 0 0 0 0 0 0 0 0 0 0 0 0 0 0 0 0 0 0 0 0 0 0 0 0 0 0 0 0 0 0 0 0 0 0 0 -0 0 0
0 0 0 0 0 0 0 0 0 0 0 0 0 0 0 0 0 0 0 0 0 0 0 0 0 0 0 0 0 0 0 0 0 0 0 0 0 0 0 0 0 0 0 0
Wind_Speed_500mb
51 47 32 13 6 6 5 9 3 27 18 12 8 13 7 8 17 24 12 12 15 15 17 14 12 13 15 20 38 30 22 14 31 39 43 52 31 42 43 31 37 34 30 29
51 48 37 22 6 5 6 7 8 25 8 7 12 12 11 13 17 20 13 12 12 14 11 10 11 12 24 23 32 23 19 11 29 26 24 17 16 35 55 35 37 38 32 29
52 48 43 28 8 3 2 2 2 11 24 13 8 8 10 7 12 11 10 10 5 16 11 4 13 15 15 38 28 16 18 22 27 28 37 31 39 28 24 28 22 39 36 34
51 51 45 34 17 3 7 7 8 5 6 14 13 9 4 9 5 7 17 1 14 14 9 20 5 29 30 29 5 23 9 25 31 36 42 43 47 38 31 17 32 23 19 18
49 50 49 45 28 9 9 4 5 11 10 3 6 1 5 8 6 5 6 12 17 12 11 19 31 32 24 10 17 14 9 18 32 39 42 34 42 31 21 21 20 35 31 29
46 47 48 47 41 23 17 18 15 2 2 5 4 6 3 6 5 3 6 13 17 11 20 29 31 22 19 14 11 18 14 18 24 26 38 37 21 25 2 9 3 6 14 17
41 41 40 40 41 38 23 13 7 3 6 0 6 3 1 3 2 3 5 9 13 20 31 11 7 5 5 7 7 10 21 23 10 16 33 11 14 28 26 13 9 13 6 8
37 36 34 32 30 28 27 21 8 3 5 5 8 4 2 3 6 5 4 9 13 26 15 10 7 9 9 1 9 10 14 19 10 8 17 6 7 8 4 6 10 17 12 10
37 33 31 27 24 22 16 16 12 4 4 5 5 6 3 4 3 12 4 9 10 18 9 4 6 9 11 6 16 4 11 5 13 14 11 9 8 19 16 3 3 7 17 12
45 35 29 26 20 16 14 14 7 2 6 9 8 4 1 2 4 5 2 6 7 14 8 8 8 6 6 10 14 18 17 16 12 12 6 5 20 21 5 7 8 9 14 15
50 43 32 26 22 15 10 9 10 3 8 9 16 12 9 8 7 7 6 10 6 6 8 7 6 7 8 9 13 14 10 11 9 10 4 5 27 8 7 6 4 8 11 16
56 48 40 30 22 18 14 8 13 10 10 7 17 21 19 16 9 7 3 6 4 8 11 4 5 11 6 12 10 5 6 8 9 5 7 4 9 7 3 2 5 7 10 15
58 53 45 36 26 20 17 15 15 13 12 17 20 23 25 25 23 15 10 7 3 6 9 18 7 11 8 11 12 10 7 9 11 8 10 13 7 7 7 9 7 5 4 8
62 55 49 39 27 20 19 13 13 6 11 12 7 25 22 24 27 28 27 22 22 16 12 21 13 13 11 14 12 18 17 6 13 16 17 11 17 14 10 11 7 3 5 5
65 59 51 38 24 18 15 14 10 8 3 11 15 16 25 29 29 29 28 28 22 17 13 14 17 23 9 24 12 18 20 16 11 10 3 12 3 13 18 16 13 11 9 9
73 61 49 36 21 14 8 6 9 10 8 9 6 7 12 24 25 24 25 23 21 21 19 29 21 10 15 11 18 26 18 24 21 18 6 14 9 12 19 20 16 15 13 11
75 62 48 30 15 15 11 6 6 9 10 7 10 6 6 17 16 12 16 20 18 19 23 21 28 18 13 13 20 34 16 20 22 18 15 16 21 17 20 19 16 15 16 18
75 62 37 19 3 12 13 25 19 10 6 8 7 6 8 12 14 15 11 13 12 14 13 8 16 7 12 9 21 11 7 12 19 19 21 9 12 20 17 18 18 20 22 21
74 49 29 4 2 4 9 14 19 20 15 9 8 7 7 5 10 10 8 8 9 3 10 8 7 8 10 18 18 14 12 16 19 23 23 23 20 20 20 22 23 21 20 19
70 27 10 4 4 7 15 8 5 6 11 14 21 16 14 9 8 13 8 5 5 6 4 4 7 8 35 23 21 24 24 23 25 24 29 28 28 26 25 24 24 24 20 14
53 25 8 15 19 14 5 6 9 7 8 12 13 15 17 4 11 13 3 6 4 7 6 6 6 7 15 17 17 17 18 20 31 34 32 31 29 29 23 23 24 23 22 20
63 41 30 10 3 4 7 4 4 9 5 3 10 6 9 3 3 8 6 6 3 9 3 7 6 8 16 15 15 16 18 20 23 29 38 43 47 37 31 27 25 25 26 25
27 9 8 5 1 5 4 4 4 6 5 4 14 15 7 5 2 6 6 9 8 2 6 6 9 7 15 16 16 18 18 20 26 31 33 33 34 40 31 33 28 28 31 29
6 7 12 3 2 4 6 11 15 22 21 29 26 22 9 5 3 6 9 6 5 8 8 9 8 20 15 16 20 22 25 27 28 30 31 32 34 36 42 41 37 33 33 32
6 5 4 5 8 19 24 23 23 27 26 27 21 14 11 6 5 6 8 7 10 8 8 7 20 12 18 21 25 27 26 25 27 28 32 32 35 39 43 45 39 38 36 37
5 7 8 9 17 26 29 29 31 30 21 22 14 12 6 8 4 7 13 7 9 6 11 18 23 31 44 43 36 35 31 28 25 28 28 30 34 35 39 41 41 41 39 37
7 7 11 17 24 26 31 31 30 21 16 11 12 9 7 5 5 6 5 8 10 26 50 65 71 74 79 66 55 41 33 29 24 23 25 30 36 37 37 34 32 30 32 32
Wind_Direction_500mb
21 20 20 21 60 113 73 27 26 352 22 56 49 59 32 16 15 14 12 3 341 352 340 324 345 2 11 2 344 325 313 289 286 289 299 291 283 286 286 267 263 252 261 277
23 20 21 20 51 136 61 68 43 12 31 59 88 104 87 50 20 24 7 10 358 347 327 312 339 348 355 2 340 339 325 295 301 294 280 338 354 352 330 319 298 271 270 261
22 24 22 24 32 160 118 108 188 50 54 55 37 114 63 79 43 53 12 14 344 334 315 305 300 316 333 334 332 333 308 283 282 287 294 285 282 286 309 334 301 282 257 276
19 22 27 26 31 122 84 47 73 41 40 57 67 76 64 55 47 34 15 337 3 349 307 318 312 327 328 320 23 308 280 280 286 290 298 286 271 265 276 286 310 303 346 332
18 20 23 32 34 57 106 73 128 83 94 74 84 50 63 28 51 328 44 342 342 334 310 326 317 327 328 338 329 335 321 289 311 295 291 289 271 249 257 265 264 275 303 322
17 19 23 28 39 61 73 77 102 108 116 132 250 55 58 39 329 154 312 329 319 343 348 312 299 294 292 278 315 340 318 316 316 308 338 304 279 22 342 78 5 302 325 343
16 18 23 28 37 47 61 70 71 268 100 113 64 124 265 333 359 343 337 328 329 342 323 299 230 210 166 239 275 306 321 327 333 306 314 11 356 7 344 346 33 23 20 28
11 14 18 25 31 39 47 50 60 30 113 95 156 186 237 233 190 226 300 347 324 326 308 278 271 191 212 171 330 328 346 319 319 307 330 125 13 7 331 342 32 349 2 39
6 6 10 14 21 30 40 40 55 51 238 144 155 183 225 279 235 196 236 352 325 341 296 296 325 23 324 334 339 329 325 263 290 333 318 7 351 0 202 211 169 313 347 356
4 358 357 1 4 9 23 20 27 32 278 183 182 219 314 187 254 295 284 341 341 340 336 17 357 357 310 329 323 333 333 348 352 345 327 98 8 340 303 287 30 6 5 23
360 356 348 345 348 343 342 299 3 2 276 208 213 204 189 192 241 308 62 228 162 308 333 331 26 300 17 277 319 322 313 332 5 324 347 288 6 343 10 34 98 337 6 4
355 351 345 334 330 329 320 303 306 304 258 297 232 227 229 225 234 272 200 1 296 359 306 307 304 287 220 298 310 181 293 337 309 282 278 347 314 338 111 337 343 5 359 9
350 345 341 331 319 313 310 296 280 309 282 261 236 239 236 230 228 226 272 190 224 228 266 312 298 280 276 286 290 288 212 210 255 298 163 246 245 231 236 236 284 337 32 38
348 343 337 329 315 301 303 295 281 267 291 279 211 233 231 230 232 237 246 262 253 248 254 268 276 270 250 278 288 280 292 174 270 267 251 240 227 231 217 200 224 199 156 142
346 341 335 329 311 292 296 297 236 210 300 313 296 255 234 242 242 240 240 245 238 247 247 247 267 269 291 265 292 271 249 258 261 288 36 255 228 218 206 207 199 187 182 168
348 339 334 325 303 270 279 250 240 227 279 300 285 276 251 225 231 243 234 238 236 244 267 286 272 262 262 265 272 287 260 251 256 262 257 261 237 218 206 205 206 204 217 225
349 341 333 325 289 225 205 262 181 247 267 269 276 245 216 220 223 234 228 224 234 243 266 264 269 242 215 267 269 287 272 248 238 243 251 236 217 208 200 204 210 224 242 255
349 345 340 336 300 198 237 246 258 239 251 246 267 257 241 221 236 251 223 242 239 232 264 238 244 167 232 251 243 258 270 247 219 225 214 248 203 208 214 225 242 253 255 253
346 347 332 346 129 200 241 263 236 245 230 280 238 270 313 193 252 274 250 243 253 224 244 228 234 229 223 241 251 258 253 226 223 214 208 212 218 229 243 244 252 258 262 249
348 347 341 236 220 260 301 281 208 213 213 223 255 268 268 264 289 298 296 218 260 261 175 176 233 245 242 247 255 265 254 236 219 218 216 223 231 241 248 246 253 263 257 235
350 334 285 282 283 299 238 242 232 178 229 215 251 260 278 233 287 312 275 297 269 266 127 254 226 250 215 201 234 248 245 235 228 233 240 238 246 241 254 250 248 248 232 219
319 306 295 313 353 222 258 251 221 232 290 207 274 305 260 256 248 268 194 256 236 256 95 253 254 247 191 204 240 247 247 247 248 250 254 255 246 245 251 251 254 240 228 222
334 7 356 316 302 2 269 291 248 271 302 320 313 286 251 197 219 275 271 236 232 130 232 249 230 174 203 235 245 250 243 259 269 268 263 260 251 239 232 254 247 238 225 227
317 318 327 303 283 263 285 299 305 303 298 310 307 291 261 187 181 233 256 280 250 238 230 239 261 211 238 257 252 253 260 264 264 266 264 262 256 247 229 226 245 231 228 229
272 271 265 250 306 297 298 300 298 301 296 305 297 261 238 187 184 236 253 249 248 232 229 248 351 263 284 288 271 262 257 262 273 276 267 261 259 254 244 230 229 228 233 237
251 240 260 279 290 311 320 314 310 318 309 305 269 258 265 239 192 230 218 247 240 280 295 315 325 330 323 308 294 276 267 264 273 280 267 269 264 257 250 230 221 232 234 232
239 244 264 285 299 302 311 315 314 318 306 291 294 262 242 116 244 261 266 238 312 321 318 310 307 305 303 296 299 271 265 259 275 271 273 279 275 271 245 218 215 227 227 225
Wind_Speed_850mb
51 47 32 13 6 6 5 9 3 27 18 12 8 13 7 8 17 24 12 12 15 15 17 14 12 13 15 20 38 30 22 14 31 39 43 52 31 42 43 31 37 34 30 29
51 48 37 22 6 5 6 7 8 25 8 7 12 12 11 13 17 20 13 12 12 14 11 10 11 12 24 23 32 23 19 11 29 26 24 17 16 35 55 35 37 38 32 29
52 48 43 28 8 3 2 2 2 11 24 13 8 8 10 7 12 11 10 10 5 16 11 4 13 15 15 38 28 16 18 22 27 28 37 31 39 28 24 28 22 39 36 34
51 51 45 34 17 3 7 7 8 5 6 14 13 9 4 9 5 7 17 1 14 14 9 20 5 29 30 29 5 23 9 25 31 36 42 43 47 38 31 17 32 23 19 18
49 50 49 45 28 9 9 4 5 11 10 3 6 1 5 8 6 5 6 12 17 12 11 19 31 32 24 10 17 14 9 18 32 39 42 34 42 31 21 21 20 35 31 29
46 47 48 47 41 23 17 18 15 2 2 5 4 6 3 6 5 3 6 13 17 11 20 29 31 22 19 14 11 18 14 18 24 26 38 37 21 25 2 9 3 6 14 17
41 41 40 40 41 38 23 13 7 3 6 0 6 3 1 3 2 3 5 9 13 20 31 11 7 5 5 7 7 10 21 23 10 16 33 11 14 28 26 13 9 13 6 8
37 36 34 32 30 28 27 21 8 3 5 5 8 4 2 3 6 5 4 9 13 26 15 10 7 9 9 1 9 10 14 19 10 8 17 6 7 8 4 6 10 17 12 10
37 33 31 27 24 22 16 16 12 4 4 5 5 6 3 4 3 12 4 9 10 18 9 4 6 9 11 6 16 4 11 5 13 14 11 9 8 19 16 3 3 7 17 12
45 35 29 26 20 16 14 14 7 2 6 9 8 4 1 2 4 5 2 6 7 14 8 8 8 6 6 10 14 18 17 16 12 12 6 5 20 21 5 7 8 9 14 15
50 43 32 26 22 15 10 9 10 3 8 9 16 12 9 8 7 7 6 10 6 6 8 7 6 7 8 9 13 14 10 11 9 10 4 5 27 8 7 6 4 8 11 16
56 48 40 30 22 18 14 8 13 10 10 7 17 21 19 16 9 7 3 6 4 8 11 4 5 11 6 12 10 5 6 8 9 5 7 4 9 7 3 2 5 7 10 15
58 53 45 36 26 20 17 15 15 13 12 17 20 23 25 25 23 15 10 7 3 6 9 18 7 11 8 11 12 10 7 9 11 8 10 13 7 7 7 9 7 5 4 8
62 55 49 39 27 20 19 13 13 6 11 12 7 25 22 24 27 28 27 22 22 16 12 21 13 13 11 14 12 18 17 6 13 16 17 11 17 14 10 11 7 3 5 5
65 59 51 38 24 18 15 14 10 8 3 11 15 16 25 29 29 29 28 28 22 17 13 14 17 23 9 24 12 18 20 16 11 10 3 12 3 13 18 16 13 11 9 9
73 61 49 36 21 14 8 6 9 10 8 9 6 7 12 24 25 24 25 23 21 21 19 29 21 10 15 11 18 26 18 24 21 18 6 14 9 12 19 20 16 15 13 11
75 62 48 30 15 15 11 6 6 9 10 7 10 6 6 17 16 12 16 20 18 19 23 21 28 18 13 13 20 34 16 20 22 18 15 16 21 17 20 19 16 15 16 18
75 62 37 19 3 12 13 25 19 10 6 8 7 6 8 12 14 15 11 13 12 14 13 8 16 7 12 9 21 11 7 12 19 19 21 9 12 20 17 18 18 20 22 21
74 49 29 4 2 4 9 14 19 20 15 9 8 7 7 5 10 10 8 8 9 3 10 8 7 8 10 18 18 14 12 16 19 23 23 23 20 20 20 22 23 21 20 19
70 27 10 4 4 7 15 8 5 6 11 14 21 16 14 9 8 13 8 5 5 6 4 4 7 8 35 23 21 24 24 23 25 24 29 28 28 26 25 24 24 24 20 14
53 25 8 15 19 14 5 6 9 7 8 12 13 15 17 4 11 13 3 6 4 7 6 6 6 7 15 17 17 17 18 20 31 34 32 31 29 29 23 23 24 23 22 20
63 41 30 10 3 4 7 4 4 9 5 3 10 6 9 3 3 8 6 6 3 9 3 7 6 8 16 15 15 16 18 20 23 29 38 43 47 37 31 27 25 25 26 25
27 9 8 5 1 5 4 4 4 6 5 4 14 15 7 5 2 6 6 9 8 2 6 6 9 7 15 16 16 18 18 20 26 31 33 33 34 40 31 33 28 28 31 29
6 7 12 3 2 4 6 11 15 22 21 29 26 22 9 5 3 6 9 6 5 8 8 9 8 20 15 16 20 22 25 27 28 30 31 32 34 36 42 41 37 33 33 32
6 5 4 5 8 19 24 23 23 27 26 27 21 14 11 6 5 6 8 7 10 8 8 7 20 12 18 21 25 27 26 25 27 28 32 32 35 39 43 45 39 38 36 37
5 7 8 9 17 26 29 29 31 30 21 22 14 12 6 8 4 7 13 7 9 6 11 18 23 31 44 43 36 35 31 28 25 28 28 30 34 35 39 41 41 41 39 37
7 7 11 17 24 26 31 31 30 21 16 11 12 9 7 5 5 6 5 8 10 26 50 65 71 74 79 66 55 41 33 29 24 23 25 30 36 37 37 34 32 30 32 32
Wind_Direction_850mb
21 20 20 21 60 113 73 27 26 352 22 56 49 59 32 16 15 14 12 3 341 352 340 324 345 2 11 2 344 325 313 289 286 289 299 291 283 286 286 267 263 252 261 277
23 20 21 20 51 136 61 68 43 12 31 59 88 104 87 50 20 24 7 10 358 347 327 312 339 348 355 2 340 339 325 295 301 294 280 338 354 352 330 319 298 271 270 261
22 24 22 24 32 160 118 108 188 50 54 55 37 114 63 79 43 53 12 14 344 334 315 305 300 316 333 334 332 333 308 283 282 287 294 285 282 286 309 334 301 282 257 276
19 22 27 26 31 122 84 47 73 41 40 57 67 76 64 55 47 34 15 337 3 349 307 318 312 327 328 320 23 308 280 280 286 290 298 286 271 265 276 286 310 303 346 332
18 20 23 32 34 57 106 73 128 83 94 74 84 50 63 28 51 328 44 342 342 334 310 326 317 327 328 338 329 335 321 289 311 295 291 289 271 249 257 265 264 275 303 322
17 19 23 28 39 61 73 77 102 108 116 132 250 55 58 39 329 154 312 329 319 343 348 312 299 294 292 278 315 340 318 316 316 308 338 304 279 22 342 78 5 302 325 343
16 18 23 28 37 47 61 70 71 268 100 113 64 124 265 333 359 343 337 328 329 342 323 299 230 210 166 239 275 306 321 327 333 306 314 11 356 7 344 346 33 23 20 28
11 14 18 25 31 39 47 50 60 30 113 95 156 186 237 233 190 226 300 347 324 326 308 278 271 191 212 171 330 328 346 319 319 307 330 125 13 7 331 342 32 349 2 39
6 6 10 14 21 30 40 40 55 51 238 144 155 183 225 279 235 196 236 352 325 341 296 296 325 23 324 334 339 329 325 263 290 333 318 7 351 0 202 211 169 313 347 356
4 358 357 1 4 9 23 20 27 32 278 183 182 219 314 187 254 295 284 341 341 340 336 17 357 357 310 329 323 333 333 348 352 345 327 98 8 340 303 287 30 6 5 23
360 356 348 345 348 343 342 299 3 2 276 208 213 204 189 192 241 308 62 228 162 308 333 331 26 300 17 277 319 322 313 332 5 324 347 288 6 343 10 34 98 337 6 4
355 351 345 334 330 329 320 303 306 304 258 297 232 227 229 225 234 272 200 1 296 359 306 307 304 287 220 298 310 181 293 337 309 282 278 347 314 338 111 337 343 5 359 9
350 345 341 331 319 313 310 296 280 309 282 261 236 239 236 230 228 226 272 190 224 228 266 312 298 280 276 286 290 288 212 210 255 298 163 246 245 231 236 236 284 337 32 38
348 343 337 329 315 301 303 295 281 267 291 279 211 233 231 230 232 237 246 262 253 248 254 268 276 270 250 278 288 280 292 174 270 267 251 240 227 231 217 200 224 199 156 142
346 341 335 329 311 292 296 297 236 210 300 313 296 255 234 242 242 240 240 245 238 247 247 247 267 269 291 265 292 271 249 258 261 288 36 255 228 218 206 207 199 187 182 168
348 339 334 325 303 270 279 250 240 227 279 300 285 276 251 225 231 243 234 238 236 244 267 286 272 262 262 265 272 287 260 251 256 262 257 261 237 218 206 205 206 204 217 225
349 341 333 325 289 225 205 262 181 247 267 269 276 245 216 220 223 234 228 224 234 243 266 264 269 242 215 267 269 287 272 248 238 243 251 236 217 208 200 204 210 224 242 255
349 345 340 336 300 198 237 246 258 239 251 246 267 257 241 221 236 251 223 242 239 232 264 238 244 167 232 251 243 258 270 247 219 225 214 248 203 208 214 225 242 253 255 253
346 347 332 346 129 200 241 263 236 245 230 280 238 270 313 193 252 274 250 243 253 224 244 228 234 229 223 241 251 258 253 226 223 214 208 212 218 229 243 244 252 258 262 249
348 347 341 236 220 260 301 281 208 213 213 223 255 268 268 264 289 298 296 218 260 261 175 176 233 245 242 247 255 265 254 236 219 218 216 223 231 241 248 246 253 263 257 235
350 334 285 282 283 299 238 242 232 178 229 215 251 260 278 233 287 312 275 297 269 266 127 254 226 250 215 201 234 248 245 235 228 233 240 238 246 241 254 250 248 248 232 219
319 306 295 313 353 222 258 251 221 232 290 207 274 305 260 256 248 268 194 256 236 256 95 253 254 247 191 204 240 247 247 247 248 250 254 255 246 245 251 251 254 240 228 222
334 7 356 316 302 2 269 291 248 271 302 320 313 286 251 197 219 275 271 236 232 130 232 249 230 174 203 235 245 250 243 259 269 268 263 260 251 239 232 254 247 238 225 227
317 318 327 303 283 263 285 299 305 303 298 310 307 291 261 187 181 233 256 280 250 238 230 239 261 211 238 257 252 253 260 264 264 266 264 262 256 247 229 226 245 231 228 229
272 271 265 250 306 297 298 300 298 301 296 305 297 261 238 187 184 236 253 249 248 232 229 248 351 263 284 288 271 262 257 262 273 276 267 261 259 254 244 230 229 228 233 237
251 240 260 279 290 311 320 314 310 318 309 305 269 258 265 239 192 230 218 247 240 280 295 315 325 330 323 308 294 276 267 264 273 280 267 269 264 257 250 230 221 232 234 232
239 244 264 285 299 302 311 315 314 318 306 291 294 262 242 116 244 261 266 238 312 321 318 310 307 305 303 296 299 271 265 259 275 271 273 279 275 271 245 218 215 227 227 225